FW3241 Weather Reports


Display with metric or nautical units.
time (UTC)temp
F
wind
direction
speed
MPH
gust
MPH
rain 1hr
in
rain 24hr
in
rain mn
in
humidity
%
barometer
mb
20260903174556 78 167 0.0 1.0 0.00 0.01 0.01 58 1019.0
20260903173053 77 167 0.0 0.0 0.00 0.01 0.01 59 1019.2
20260903171558 76 167 0.0 1.0 0.00 0.01 0.01 61 1019.4
20260903170058 75 167 0.0 0.0 0.00 0.01 0.01 63 1019.7
20260903164547 75 167 0.0 1.0 0.00 0.01 0.01 63 1019.7
20260903163044 75 167 0.0 2.0 0.00 0.01 0.01 63 1019.8
20260903161540 75 167 0.0 1.0 0.00 0.01 0.01 64 1019.8
20260903160045 74 167 0.0 2.0 0.00 0.01 0.01 61 1019.9
20260903154538 74 167 0.0 3.0 0.00 0.01 0.01 62 1020.0
20260903153037 74 167 0.0 1.0 0.00 0.01 0.01 64 1020.0
20260903151533 74 167 0.0 2.0 0.00 0.01 0.01 63 1019.9
20260903150043 74 167 0.0 1.0 0.00 0.01 0.01 63 1019.9
20260903144534 73 167 0.0 1.0 0.00 0.01 0.01 64 1019.8
20260903143024 72 167 0.0 1.0 0.00 0.01 0.01 65 1019.8
20260903141523 72 167 0.0 1.0 0.00 0.01 0.01 65 1019.8
20260903140022 71 167 0.0 0.0 0.00 0.01 0.01 66 1019.9
20260903134521 71 167 0.0 0.0 0.00 0.01 0.01 66 1019.8
20260903133021 71 165 0.0 0.0 0.00 0.01 0.01 67 1019.8
20260903131521 70 165 0.0 1.0 0.00 0.01 0.01 67 1019.6
20260903130020 70 165 0.0 0.0 0.00 0.01 0.01 67 1019.8
20260903124519 70 165 0.0 0.0 0.00 0.01 0.01 67 1019.8
20260903123019 70 165 0.0 0.0 0.00 0.01 0.01 66 1019.8
20260903121542 70 165 0.0 0.0 0.00 0.01 0.01 65 1019.8
20260903120018 70 165 0.0 0.0 0.01 0.01 0.01 65 1019.8
20260903114518 70 165 0.0 0.0 0.01 0.01 0.01 66 1019.7
20260903113018 70 165 0.0 0.0 0.01 0.01 0.01 66 1019.5
20260903111516 70 165 0.0 0.0 0.01 0.01 0.01 65 1019.2
20260903110016 70 165 0.0 0.0 0.00 0.00 0.00 65 1019.2
20260903104519 70 165 0.0 0.0 0.00 0.00 0.00 65 1019.1
20260903103015 70 165 0.0 0.0 0.00 0.00 0.00 65 1019.0
20260903101515 70 165 0.0 0.0 0.00 0.00 0.00 65 1018.9
20260903100030 70 165 0.0 0.0 0.00 0.00 0.00 66 1019.0
20260903094514 70 165 0.0 0.0 0.00 0.00 0.00 67 1019.1
20260903093012 70 165 0.0 0.0 0.00 0.00 0.00 67 1018.9
20260903091512 70 165 0.0 0.0 0.00 0.00 0.00 67 1018.9
20260903090010 70 165 0.0 0.0 0.00 0.00 0.00 67 1018.9
20260903084516 70 165 0.0 0.0 0.00 0.00 0.00 67 1018.8
20260903083010 70 165 0.0 0.0 0.00 0.00 0.00 66 1018.9
20260903081509 70 165 0.0 0.0 0.00 0.00 0.00 67 1018.7
20260903080008 70 165 0.0 0.0 0.00 0.00 0.00 67 1018.8
20260903074509 70 165 0.0 0.0 0.00 0.00 0.00 66 1018.8
20260903073017 70 165 0.0 0.0 0.00 0.00 0.00 66 1018.7
20260903071504 71 165 0.0 0.0 0.00 0.00 0.00 64 1019.0
20260903070002 71 165 0.0 0.0 0.00 0.00 0.00 63 1019.1
20260903064601 71 165 0.0 0.0 0.00 0.00 0.00 63 1019.0
20260903063100 71 165 0.0 0.0 0.00 0.00 0.00 63 1019.0
20260903061601 71 165 0.0 0.0 0.00 0.00 0.00 63 1019.0
20260903060120 71 165 0.0 0.0 0.00 0.00 0.00 63 1019.2
20260903054555 71 165 0.0 0.0 0.00 0.00 0.00 62 1019.4
20260903053059 71 165 0.0 0.0 0.00 0.00 0.00 62 1019.5
20260903051604 71 165 0.0 0.0 0.00 0.00 0.00 62 1019.5
20260903050051 72 165 0.0 0.0 0.00 0.00 0.00 61 1019.5
20260903044550 72 165 0.0 0.0 0.00 0.00 0.00 61 1019.5
20260903043057 72 165 0.0 0.0 0.00 0.00 0.00 61 1019.6
20260903041552 72 165 0.0 0.0 0.00 0.00 0.00 61 1019.7
20260903040047 72 165 0.0 0.0 0.00 0.00 0.00 61 1020.0
20260903034546 72 165 0.0 0.0 0.00 0.00 0.00 60 1019.9
20260903033048 73 165 0.0 0.0 0.00 0.00 0.00 60 1020.2
20260903031546 73 165 0.0 0.0 0.00 0.00 0.00 60 1020.3
20260903030051 73 165 0.0 1.0 0.00 0.00 0.00 61 1020.3
20260903024546 72 165 0.0 0.0 0.00 0.00 0.00 62 1020.3
20260903023046 72 165 0.0 0.0 0.00 0.00 0.00 62 1020.1
20260903021549 72 165 0.0 0.0 0.00 0.00 0.00 62 1020.3
20260903020043 72 165 0.0 0.0 0.00 0.00 0.00 61 1020.2
20260903014551 73 165 0.0 0.0 0.00 0.00 0.00 61 1020.2
20260903013043 73 165 0.0 0.0 0.00 0.00 0.00 61 1019.8
20260903011600 73 165 0.0 0.0 0.00 0.00 0.00 61 1019.6
20260903010044 72 165 0.0 0.0 0.00 0.00 0.00 63 1019.5
20260903004541 73 165 0.0 1.0 0.00 0.00 0.00 63 1019.2
20260903003044 73 165 0.0 0.0 0.00 0.00 0.00 63 1019.1
20260903001540 73 165 0.0 0.0 0.00 0.00 0.00 62 1018.9
20260903000049 74 165 0.0 0.0 0.00 0.00 0.00 61 1018.8
20260902234541 75 165 0.0 0.0 0.00 0.00 0.00 60 1018.9
20260902233049 75 165 0.0 0.0 0.00 0.00 0.00 60 1018.9
20260902231538 76 165 0.0 0.0 0.00 0.00 0.00 59 1019.0
20260902230043 76 165 0.0 0.0 0.00 0.00 0.00 57 1019.0
20260902224535 76 165 0.0 0.0 0.00 0.00 0.00 56 1019.1
20260902223035 77 165 0.0 0.0 0.00 0.00 0.00 57 1019.1
20260902221534 78 165 0.0 0.0 0.00 0.00 0.00 58 1019.3
20260902220043 79 165 0.0 2.0 0.00 0.00 0.00 56 1019.3
20260902214551 79 165 0.0 2.0 0.00 0.00 0.00 56 1019.4
20260902213032 79 165 0.0 2.0 0.00 0.00 0.00 54 1019.3
20260902211531 79 165 0.0 2.0 0.00 0.00 0.00 54 1019.3
20260902210034 78 165 0.0 2.0 0.00 0.00 0.00 57 1019.4
20260902204530 79 165 1.0 2.0 0.00 0.00 0.00 55 1019.4
20260902203030 78 165 0.0 2.0 0.00 0.00 0.00 52 1019.5
20260902201537 78 165 0.0 2.0 0.00 0.00 0.00 51 1019.5
20260902200027 79 165 1.0 2.0 0.00 0.00 0.00 51 1019.7
20260902194524 79 165 0.0 2.0 0.00 0.00 0.00 48 1019.8
20260902193023 79 165 1.0 2.0 0.00 0.00 0.00 50 1020.1
20260902191525 79 165 0.0 2.0 0.00 0.00 0.00 48 1020.2
20260902190020 79 165 0.0 2.0 0.00 0.00 0.00 47 1020.3
20260902184522 80 164 0.0 0.0 0.00 0.00 0.00 46 1020.4
20260902183019 80 164 0.0 0.0 0.00 0.00 0.00 45 1020.5
20260902181518 82 164 0.0 0.0 0.00 0.00 0.00 48 1020.5
20260902180016 82 164 0.0 0.0 0.00 0.00 0.00 48 1020.7